Location: Bournand
(47.0868°N, 0.0786°E)
Time: 21:09:15
(UTC+00:00)

Daily predictions for brighter satellites

Satellite Brightness Start Highest point End
(mag) Time Altitude Azimuth Time Altitude Azimuth Time Altitude Azimuth
ATLAS 2AS CENTAUR R/B 3.8 16:36:13 10° WSW 16:43:37 43° NW 16:50:48 10° NE
SL-16 R/B 4.4 16:40:41 10° WNW 16:44:11 16° NW 16:47:41 10° N
Cosmos-2242 3.7 16:41:08 10° SSW 16:45:22 59° W 16:49:38 10° N
ATLAS CENTAUR R/B 4.4 16:35:47 10° S 16:45:44 31° SE 16:50:31 10° ENE
SJ 16-02 1.3 16:45:23 10° NNW 16:49:46 68° ENE 16:54:07 10° SSE
Okean 3 Rocket 3.6 16:48:46 10° N 16:53:19 78° E 16:57:48 10° SSE
NOAA 11 4.5 16:49:14 10° S 16:54:38 75° WSW 17:00:06 10° NNW
Cosmos 2034 Rocket 4.4 16:49:31 10° SSE 16:55:10 39° E 17:00:50 10° NNE
USA 306 3.1 16:55:38 10° WSW 16:59:52 67° NNW 17:04:00 11° NE
CORIOLIS 4.3 16:54:54 10° SE 17:00:07 52° ENE 17:05:22 10° N
NOSS 3-1 (A) 4.3 16:53:25 10° NW 17:00:22 47° NE 17:08:29 10° ESE
NOSS 2-1 (C) 3.1 16:57:15 10° SW 17:00:30 66° NW 17:03:49 10° NE
CZ-2D R/B 4.1 16:58:21 10° SE 17:01:38 27° ENE 17:04:55 10° N
Spot 1 4.3 16:57:39 10° NNE 17:02:14 89° SE 17:07:04 10° SSW
NOSS 3-1 (C) 4.1 16:56:25 10° NW 17:03:42 67° NE 17:12:18 10° SE
USA 234 3.6 16:57:31 10° SE 17:04:03 73° SW 17:10:37 10° NW
Aureole 3 4.4 16:59:56 10° S 17:05:23 84° E 17:12:14 10° N
SL-08 R/B 3.6 17:00:58 10° N 17:05:44 70° WNW 17:10:22 10° SSW
Iridium 2 3.7 17:02:02 10° N 17:05:49 86° W 17:09:34 10° S
Cosmos 1842 Rocket 3.8 17:02:32 10° SSE 17:06:48 49° E 17:11:07 10° NNE
Cosmos 1833 Rocket 3.9 17:03:50 10° SSE 17:08:02 22° E 17:11:51 11° NE
NOSS 2-1 (D) 3.4 17:06:38 10° SW 17:09:50 52° NW 17:13:07 10° NNE
Meteor 2-2 Rocket 4.4 17:04:17 10° S 17:10:17 77° E 17:16:18 10° NNE
PSLV R/B 4.0 17:10:01 10° SE 17:13:29 41° ENE 17:16:59 10° N
CZ-4B R/B 3.7 17:09:11 10° SE 17:14:03 34° ENE 17:18:52 10° N
Meteor PRIRODA 4.4 17:10:56 10° S 17:14:31 56° W 17:18:07 10° NNW
Sich 1 4.2 17:12:40 10° NNE 17:15:55 21° ENE 17:19:09 10° ESE
USA 307 3.2 17:12:07 10° WSW 17:16:21 60° NNW 17:19:51 15° NE
ERBS 2.1 17:13:50 10° SW 17:17:02 88° NW 17:19:27 17° NE
Cosmos 1939 Rocket 2.9 17:12:55 10° SSE 17:17:03 86° ENE 17:21:11 10° NNW
Cosmos 1862 4.3 17:13:32 10° NNW 17:17:25 51° W 17:21:18 10° S
SMAP 3.0 17:13:12 10° SSE 17:17:50 81° ENE 17:22:32 10° NNW
ARGOS 3.9 17:13:44 10° ESE 17:18:22 30° ENE 17:23:01 10° N
Cosmos 1606 2.6 17:15:25 10° S 17:19:10 88° W 17:22:58 10° N
Cosmos 1898 Rocket 4.0 17:14:35 10° N 17:19:27 36° ENE 17:24:15 10° SE
H-2A R/B 2.3 17:14:54 10° SE 17:19:52 45° ENE 17:24:44 10° N
MOS 1-B Rocket 4.5 17:16:12 10° NNE 17:21:33 38° E 17:27:26 10° SSE
COSMOS 2455 4.3 17:20:45 10° SE 17:24:19 16° ESE 17:25:53 15° E
ATLAS CENTAUR R/B 2.7 17:21:12 10° WSW 17:25:03 36° NW 17:29:14 10° NNE
Cosmos 2221 2.5 17:22:09 10° S 17:26:24 89° E 17:30:44 10° N
Cosmos 44 3.1 17:22:58 10° NW 17:27:49 73° NE 17:32:21 10° SE
COSMO-SKYMED 1 3.4 17:29:13 14° NE 17:32:20 30° E 17:36:09 10° SSE
Cosmos 2026 Rocket 4.2 17:28:29 10° N 17:34:24 45° ENE 17:40:11 10° SSE
Cosmos 540 Rocket 4.4 17:31:00 10° SSE 17:35:09 26° E 17:37:03 20° ENE
deb Chang Zheng 4 3.9 17:32:31 10° SE 17:36:34 42° ENE 17:40:39 10° N
CZ-2C R/B 3.0 17:33:45 10° NNE 17:38:37 38° E 17:43:24 10° SSE
USA 308 3.5 17:34:32 10° W 17:38:40 48° NNW 17:41:12 21° NE
Cosmos 1500 4.1 17:37:11 10° NNE 17:44:46 - SE 17:40:06 26° ENE
Okean O Rocket 2.0 17:36:43 10° SE 17:40:51 39° ENE 17:45:01 10° N
Meteor 1-25 Rocket 4.1 17:38:02 10° N 17:43:35 65° ENE 17:49:07 10° SSE
ISS -2.8 17:40:40 10° WNW 17:43:51 36° N 17:44:55 28° NE
CZ-4C R/B 3.5 17:39:36 10° NNW 17:45:45 34° NNE 17:49:48 22° E
YAOGAN 1 4.0 17:50:22 20° NE 17:50:22 20° NE 17:52:22 10° N
MOS 1-B 4.3 17:46:58 10° SSE 17:52:44 89° E 17:58:34 10° NNW
CZ-4 R/B 3.6 18:00:22 13° NNE 18:00:22 13° NNE 18:00:54 10° N
Cosmos 2084 3.5 17:53:10 10° NW 17:57:25 61° NE 17:59:42 27° ESE
Cosmos 2322 Rocket 4.1 17:55:48 10° N 17:57:36 13° NNE 17:57:36 13° NNE
Cosmos 2369 4.0 17:53:14 10° NNW 17:58:46 45° NE 18:02:23 20° ESE
Cosmos 1743 Rocket 3.7 17:57:12 10° NNW 18:01:32 71° W 18:05:49 10° S
GEOS 3 Rocket 3.5 17:56:54 12° SE 18:01:44 69° NE 18:06:54 10° NW
Cosmos 1782 3.0 17:58:03 10° SSE 18:01:53 46° E 18:02:36 41° ENE
Cosmos 1697 Rocket 2.6 18:01:26 10° NNW 18:07:05 73° ENE 18:12:41 10° SSE
Cosmos 1937 Rocket 3.5 18:02:09 10° NNW 18:07:27 63° ENE 18:12:43 10° SSE
Cosmos 1763 Rocket 3.3 18:02:48 10° SSW 18:07:51 83° ESE 18:11:17 21° NNE
USA 305 3.8 18:04:15 10° W 18:08:11 37° NNW 18:09:22 30° NNE
NOSS 2-2 (C) 4.5 18:03:54 10° NNW 18:08:40 46° NE 18:10:59 32° E
Cosmos 1980 Rocket 2.5 18:03:35 10° NNW 18:08:59 43° NE 18:10:40 34° E
Cosmos 841 Rocket 3.9 18:04:49 10° S 18:09:35 39° ESE 18:10:09 38° E
Cosmos 1340 Rocket 4.1 18:08:41 10° NNW 18:12:33 43° W 18:16:24 10° SSW
USA 267 3.9 18:08:54 23° NE 18:12:44 46° NNW 18:18:53 10° W
Cosmos 1656 4.4 18:07:29 10° NW 18:12:52 54° WSW 18:18:18 10° S
SL-16 R/B 3.8 18:09:03 10° N 18:11:40 17° NNE 18:11:40 17° NNE
Meteor 2-14 Rocket 4.3 18:07:46 10° N 18:13:56 79° E 18:20:01 10° SSE
Cosmos 2082 Rocket 2.7 18:13:23 10° S 18:18:33 37° ESE 18:18:33 37° ESE
USA 276 2.5 18:17:16 10° WNW 18:19:58 61° W 18:19:58 61° W
SKYMED 2 3.5 18:17:49 23° NNE 18:20:34 88° W 18:24:53 10° SSW
Lacrosse 5 rocket 3.0 18:18:22 10° NW 18:20:53 21° N 18:20:53 21° N
Cosmos 1602 4.1 18:18:40 10° NNW 18:22:29 64° W 18:26:17 10° S
Cosmos 1092 Rocket 4.3 18:16:25 10° NNW 18:22:45 70° W 18:29:02 10° S
Cosmos 1151 Rocket 4.4 18:18:54 10° SSE 18:20:53 25° SSE 18:20:53 25° SSE
COSMOS 2406 3.1 18:18:15 10° SSW 18:23:56 67° ESE 18:26:02 39° NE
Cosmos 1933 3.7 18:20:27 10° SSW 18:24:28 62° W 18:27:10 20° N
Cosmos 2278 4.1 18:19:23 10° NNW 18:24:47 42° NE 18:24:47 42° NE
USA 229 DEB 4.0 18:20:58 10° NW 18:28:19 81° SW 18:36:08 10° SSE
USA 229 4.0 18:21:04 10° NW 18:28:25 81° SW 18:36:13 10° SSE
Meteor 2-21 Rocket 4.3 18:24:03 10° N 18:30:13 79° E 18:36:17 10° SSE
Feng Yun 1-1 Rocket 4.3 18:24:50 10° SSE 18:30:45 76° ENE 18:36:40 10° NNW
Cosmos 372 Rocket 3.8 18:29:10 10° NNW 18:34:24 68° ENE 18:35:14 58° ESE
ATLAS 2AS CENTAUR R/B 4.4 18:30:45 10° WNW 18:36:39 23° N 18:39:54 18° NNE
Cosmos 858 Rocket 4.5 18:31:43 10° NNW 18:37:02 82° WSW 18:42:18 10° SSE
Cosmos 2142 Rocket 4.3 18:31:17 10° S 18:37:23 75° E 18:43:36 10° NNE
Meteor 2-8 Rocket 4.5 18:32:30 10° SSE 18:38:26 54° E 18:38:41 53° E
Meteor 1-26 Rocket 4.4 18:33:13 10° SSW 18:39:08 81° WNW 18:45:13 10° N
USA 306 4.1 18:36:24 10° WNW 18:40:00 32° NNW 18:40:00 32° NNW
Cosmos 1833 Rocket 3.0 18:45:53 10° SW 18:51:27 63° WNW 18:53:36 37° N
Sich 1 4.3 18:49:44 10° NNW 18:53:45 40° W 18:57:45 10° SSW
Cosmos 2279 Rocket 3.9 18:49:18 10° S 18:55:32 86° W 19:01:20 12° N
USA 307 4.4 18:52:57 10° WNW 18:55:53 29° NNW 18:55:53 29° NNW
Meteor 1-14 Rocket 4.3 18:51:46 10° NNW 18:57:33 77° W 19:03:25 10° S
ARGOS 4.2 18:53:16 10° S 18:58:27 45° W 19:03:38 10° NNW
H-2A R/B 4.1 18:55:06 10° SSW 18:59:28 26° W 19:03:46 10° NW
Cosmos 2266 Rocket 4.5 18:53:40 10° N 18:58:09 45° NNE 18:58:09 45° NNE
NOSS 2-2 (D) 4.3 18:56:56 10° NW 19:02:09 89° SW 19:02:48 73° SE
ATLAS CENTAUR R/B 4.1 19:03:34 10° NW 19:05:16 12° NNW 19:05:34 12° NNW
COSMO-SKYMED 1 4.3 19:06:26 21° NNW 19:08:28 30° WNW 19:12:14 10° SW
COSMOS 2455 2.8 19:03:21 10° SSW 19:09:04 81° SSW 19:09:04 81° SSW
Cosmos 1655 Rocket 4.2 19:04:45 10° N 19:09:57 59° N 19:09:57 59° N
Cosmos 540 Rocket 4.3 19:11:34 10° SW 19:16:28 46° WNW 19:16:55 45° NW
ATLAS CENTAUR R/B 3.2 19:09:54 10° WSW 19:16:50 49° WNW 19:16:50 49° WNW
Okean O Rocket 3.9 19:13:43 10° SSW 19:17:19 24° W 19:20:56 10° NW
CZ-2C R/B 4.1 19:14:22 11° N 19:18:50 32° WNW 19:23:22 10° SW
ISS -0.4 19:17:40 10° WNW 19:17:54 12° WNW 19:17:54 12° WNW
Cosmos 2360 Rocket 4.5 19:22:26 10° N 19:23:05 13° N 19:23:05 13° N
CZ-4C R/B 2.9 19:27:53 10° NW 19:35:02 87° W 19:35:02 87° W
BREEZE-M DEB (TANK) 4.5 19:13:45 10° SW 19:37:06 64° SSE 19:37:06 64° SSE
Cosmos 2322 Rocket 4.4 19:38:16 10° NNW 19:39:25 16° NNW 19:39:25 16° NNW
Cosmos 1980 Rocket 3.6 19:47:49 10° NW 19:52:31 34° W 19:52:31 34° W
USA 267 4.4 19:56:15 34° NNW 19:56:15 34° NNW 20:00:50 10° WNW
SL-16 R/B 4.4 19:52:15 10° NNW 19:53:32 17° NNW 19:53:32 17° NNW
Cosmos 2082 Rocket 3.9 19:57:15 10° WSW 20:00:28 29° W 20:00:28 29° W
